Tracking 26492 objects as of 8-Dec-2022
HD Live streaming from Space Station
objects crossing your sky now

STARLINK-5088

Track STARLINK-5088 now!
10-day predictions
STARLINK-5088 is classified as:


NORAD ID: 54000
Int'l Code: 2022-125AN
Perigee: 411.1 km
Apogee: 413.6 km
Inclination: 53.2 °
Period: 92.7 minutes
Semi major axis: 6783 km
RCS: Unknown
Launch date: October 5, 2022
Source: United States (US)
Launch site: AIR FORCE WESTERN TEST RANGE (AFWTR)
aabbcc
Your satellite tracking list
Your tracking list is empty




NASA's NSSDC Master Catalog

Two Line Element Set (TLE):
1 54000U 22125AN  22342.25001157 -.00902422  00000-0 -15115-1 0  9990
2 54000  53.2174 139.0691 0001849  33.3314 130.8876 15.53954717 10349
Source of the keplerian elements: AFSPC